Tracking 25723 objects as of 26-Jun-2022
HD Live streaming from Space Station
objects crossing your sky now

DELTA 1 DEB

Track DELTA 1 DEB now!
10-day predictions


NORAD ID: 15788
Int'l Code: 1978-026GT
Perigee: 848.1 km
Apogee: 1,026.4 km
Inclination: 98.8 °
Period: 103.6 minutes
Semi major axis: 7308 km
RCS: 0.005 m2 (small)
Launch date: March 5, 1978
Source: United States (US)
Launch site: AIR FORCE WESTERN TEST RANGE (AFWTR)

Note: This is SATELLITE DEBRIS
aabbcc
Your satellite tracking list
Your tracking list is empty




NASA's NSSDC Master Catalog

Two Line Element Set (TLE):
1 15788U 78026GT  22177.39847072  .00000534  00000-0  44278-3 0  9991
2 15788  98.8057 134.6855 0121977 235.0168 254.6417 13.89589386  1136
Source of the keplerian elements: AFSPC